#timestamp,LO_Frequency,Hit,StdDev 
1593694815.8,286047005.9,Y
1593694835.6,286047003.1,P
1593694855.5,286047004.1,N
1593694875.3,286047004.3,N
1593694895.2,286047001.6,N
1593694915.9,286047001.7,N
1593694935.7,286047001.3,N
1593694955.6,286047002.9,N
1593694975.4,286047001.6,N
1593694995.3,286047005.2,Y
1593695015.1,286047001.8,P
1593695016.0,286047001.8,P
1593695035.8,286047000.3,N
1593695055.7,286046998.1,N
1593695075.5,286047000.1,N
1593695095.3,286047002.6,N
1593695115.2,286047001.5,N
1593695135.0,286047001.0,N
1593695135.9,286047001.0,N
1593695155.8,286046999.9,N
1593695175.6,286047001.0,N
1593695195.4,286047000.6,N
1593695215.3,286046999.4,N
1593695235.1,286046997.0,N
1593695255.9,286046994.9,Y
1593695275.7,286046997.3,P
1593695295.5,286046994.9,P
1593695315.4,286046996.1,N
1593695335.2,286046993.7,Y
1593695355.0,286046996.8,P
1593695355.9,286046996.8,P
1593695375.8,286046996.5,P
1593695395.6,286046999.3,N
1593695415.5,286046998.8,N
1593695435.3,286046999.3,N
1593695455.1,286046997.1,N
1593695475.9,286046997.9,N
1593695495.7,286046996.9,N
1593695515.5,286046998.9,N
1593695535.4,286047000.2,N
1593695555.2,286047000.7,N
1593695575.1,286046998.8,N
1593695576.0,286046998.8,N
1593695595.8,286046999.6,N
1593695615.6,286047000.2,N
1593695635.5,286047000.6,N
1593695655.3,286047002.7,N
1593695675.2,286047000.0,N
1593695695.9,286047000.0,N
1593695715.7,286047002.6,N
1593695735.6,286046999.8,N
1593695755.4,286047002.3,N
1593695775.2,286047001.4,N
1593695795.1,286047002.0,N
1593695796.0,286047002.0,N
1593695815.8,286047000.3,N
1593695835.7,286047002.4,N
1593695855.5,286047000.4,N
1593695875.3,286047000.1,N
1593695895.2,286046998.1,N
1593695915.0,286047000.0,N
1593695915.9,286047000.0,N
1593695935.8,286046998.6,N
1593695955.6,286047000.8,N
1593695975.4,286046998.4,N
1593695995.3,286047000.7,N
1593696015.1,286047002.8,N
1593696035.8,286046999.9,N
1593696055.7,286047000.7,N
1593696075.5,286046999.7,N
1593696095.4,286047000.0,N
1593696115.2,286047001.9,N
1593696135.0,286046999.9,N
1593696135.9,286046999.9,N
1593696155.8,286047000.9,N
1593696175.6,286047002.4,N
1593696195.4,286046999.8,N
1593696215.3,286047000.4,N
1593696235.1,286047001.0,N
1593696255.9,286047000.8,N
1593696275.7,286047000.5,N
1593696295.5,286047000.3,N
1593696315.4,286047002.7,N
1593696335.2,286047002.8,N
1593696355.0,286047002.4,N
1593696356.0,286047002.4,N
1593696375.8,286047001.4,N
1593696395.6,286047002.5,N
1593696415.5,286047011.9,Y
1593696435.3,286047001.9,P
1593696455.1,286047000.5,N
1593696475.9,286047000.8,N
1593696495.7,286046999.8,N
1593696515.6,286047002.5,Y
1593696535.4,286047001.4,P
1593696555.2,286047002.3,P
1593696575.1,286047000.2,N
1593696576.0,286047000.2,N
1593696595.8,286047000.7,N
1593696615.6,286047000.7,N
1593696635.5,286046998.6,N
1593696655.3,286046998.9,N
1593696675.2,286046998.5,N
1593696695.9,286046999.4,N
1593696715.7,286046998.2,N
1593696735.6,286047001.2,N
1593696755.4,286046998.9,N
1593696775.3,286046998.9,N
1593696795.1,286046999.1,N
1593696796.0,286046999.1,N
1593696815.8,286047001.1,N
1593696835.7,286046999.0,N
1593696855.5,286046998.3,N
1593696875.3,286046996.9,N
1593696895.2,286046998.9,N
1593696915.0,286047000.5,N
1593696915.9,286047000.5,N
1593696935.8,286047000.4,N
1593696955.6,286047000.2,N
1593696975.4,286047001.0,N
1593696995.3,286047000.9,N
1593697015.1,286047001.1,N
1593697035.8,286046998.5,N
1593697055.7,286047000.8,N
1593697075.5,286047002.2,N
1593697095.4,286047004.2,Y
1593697115.2,286047002.4,P
1593697135.0,286047000.4,N
1593697135.9,286047000.4,N
1593697155.8,286046998.6,N
1593697175.6,286046998.2,N
1593697195.5,286047001.0,N
1593697215.3,286047000.0,N
1593697235.1,286047000.8,N
1593697255.9,286047001.2,N
1593697275.7,286047000.4,N
1593697295.5,286046998.7,N
1593697315.4,286046998.8,N
1593697335.2,286046996.6,N
1593697355.1,286046996.8,N
1593697356.0,286046996.8,N
1593697375.8,286046997.3,N
1593697395.6,286046997.5,N
1593697415.5,286046996.5,N
1593697435.3,286046999.6,N
1593697455.2,286046997.9,N
1593697475.9,286046994.9,Y
1593697495.7,286046998.9,P
1593697515.6,286046998.3,P
1593697535.4,286046998.5,P
1593697555.2,286047000.7,N
1593697575.1,286046999.9,N
1593697576.0,286046999.9,N
1593697595.8,286047002.3,N
1593697615.7,286046999.9,N
1593697635.5,286047001.7,N
1593697655.3,286047002.1,N
1593697675.2,286047001.3,N
1593697695.0,286047003.5,N
1593697695.9,286047003.5,N
1593697715.8,286047003.7,N
1593697735.6,286047001.5,N
1593697755.4,286047002.4,N
1593697775.3,286046999.8,N
1593697795.1,286047000.2,N
1593697815.8,286047000.4,N
1593697835.7,286047000.8,N
1593697855.5,286047000.9,N
1593697875.4,286046997.1,N
1593697895.2,286046998.4,N
1593697915.0,286046998.2,N
1593697915.9,286046998.2,N
1593697935.8,286047002.4,N
1593697955.6,286047000.0,N
1593697975.5,286047000.2,N
1593697995.3,286046998.3,N
1593698015.1,286047002.3,N
1593698035.9,286047000.0,N
1593698055.7,286047000.9,N
1593698075.5,286047002.3,N
1593698095.4,286047002.2,N
1593698115.2,286047000.2,N
1593698135.1,286047002.3,N
1593698136.0,286047002.3,N
1593698155.8,286047000.4,N
1593698175.6,286047000.4,N
1593698195.5,286047002.5,N
1593698215.3,286047001.5,N
1593698235.1,286047002.6,N
1593698255.9,286047003.5,N
1593698275.7,286047003.3,N
1593698295.6,286047005.7,Y
1593698315.4,286047004.1,P
1593698335.2,286047001.9,N
1593698355.1,286047003.8,N
1593698356.0,286047003.8,N
1593698375.8,286047002.5,N
1593698395.7,286046999.8,N
